Details for Austrian at LOWI




Go Back


Latest METAR
Local Time

LOWI 261320Z 07006KT 040V110 9999 FEW070 SCT300 28/08 Q1018 NOSIG

26/05/2018, 15:44:31

Description
Results
Austrian Logo
Number of Pilots based at LOWI
0 Pilots Based here
Number of Austrian Flights Departed from LOWI
1 Flights Departed
Number of Austrian Flights Arrived at LOWI
1 Flights Arrived
Number of Austrian Schedules Departing from LOWI
22 Schedules
Number of Austrian Schedules Arriving at LOWI
24 Schedules
Number of Austrian Schedules Departing from LOWI availible today
17 Schedules Today
Number of Austrian Schedules Arriving at LOWI availible today
16 Schedules Today
Average Landing Rate at LOWI
-259 fpm
Austrian Average Landing Rate at LOWI
-360 fpm
Total Fuel Purchased at LOWI by Austrian
713.95 kgs / 1,573.97 lbs

Pilots Based at LOWI


Pilot ID
Pilot Name
Pilot Rank
No. of Flights
No. of Flying Hours
There are no pilots assigned to this hub!   Will you be the first?
Content